Simultaneous Nadir Overpasses (SNOs) Predictions

Prediction of SNOs between LANDSAT-8 and TERRA Satellite Orbit:

Table of predicted SNOs for the next 14.0 days since TLE Epoch: 11/12/2022
Index Date (LANDSAT-8) Time (LANDSAT-8) Lat,Lon (LANDSAT-8) SZA (LANDSAT-8 ) Date (TERRA) Time (TERRA) Lat,Lon (TERRA) SZA (TERRA ) Distance(km) Time Diff (sec)
1 11/13/2022 05:51:04 62.49,-130.54 128.10 11/13/2022 05:52:17 62.48,-130.50 128.23 2.54 73
2 11/13/2022 06:39:01 -57.43, 40.49 47.43 11/13/2022 06:40:11 -57.42, 40.50 47.30 1.16 70
3 11/13/2022 07:28:19 56.79,-151.52 133.13 11/13/2022 07:29:25 56.78,-151.50 133.27 2.17 66
4 11/13/2022 08:15:57 -50.57, 19.19 41.67 11/13/2022 08:17:00 -50.56, 19.19 41.53 0.55 63
5 11/13/2022 09:05:20 50.25,-173.05 138.60 11/13/2022 09:06:19 50.24,-173.03 138.74 2.11 59
6 11/13/2022 09:53:16 -45.06, -3.37 37.35 11/13/2022 09:54:12 -45.07, -3.36 37.21 0.97 56
7 11/13/2022 10:42:46 45.09, 164.25 142.64 11/13/2022 10:43:38 45.08, 164.28 142.79 2.57 52
8 11/13/2022 11:32:09 -45.06, -28.09 37.33 11/13/2022 11:32:58 -45.08, -28.05 37.21 3.50 49
9 11/13/2022 12:21:39 45.08, 139.53 142.66 11/13/2022 12:22:24 45.09, 139.58 142.79 4.42 45
10 11/13/2022 13:11:03 -45.12, -52.83 37.36 11/13/2022 13:11:45 -45.15, -52.77 37.25 6.06 42
11 11/13/2022 14:24:21 47.15, -53.97 66.24 11/13/2022 14:24:57 47.15, -54.06 66.23 6.61 36
12 11/13/2022 15:13:53 -47.00, 113.59 113.89 11/13/2022 15:14:26 -47.00, 113.52 113.90 5.64 33
13 11/13/2022 16:03:21 46.74, -78.85 65.88 11/13/2022 16:03:50 46.72, -78.92 65.86 4.96 29
14 11/13/2022 16:52:53 -46.58, 88.72 114.25 11/13/2022 16:53:19 -46.57, 88.67 114.28 3.98 26
15 11/13/2022 17:42:22 46.26,-103.75 65.47 11/13/2022 17:42:43 46.29,-103.77 65.48 3.53 21
16 11/13/2022 18:31:54 -46.11, 63.82 114.67 11/13/2022 18:32:12 -46.14, 63.82 114.65 3.46 18
17 11/13/2022 19:21:22 45.85,-128.63 65.11 11/13/2022 19:21:36 45.86,-128.62 65.11 1.75 14
18 11/13/2022 20:10:37 -46.71, 39.32 114.11 11/13/2022 20:10:48 -46.72, 39.34 114.10 2.44 11
19 11/13/2022 20:58:18 52.78,-150.47 71.51 11/13/2022 20:58:25 52.79,-150.46 71.51 1.42 7
20 11/13/2022 21:47:20 -54.37, 17.93 107.01 11/13/2022 21:47:24 -54.39, 17.95 107.00 2.15 4
21 11/13/2022 22:35:27 58.88,-171.90 77.25 11/13/2022 22:35:27 58.89,-171.89 77.25 0.88 0
22 11/13/2022 23:24:35 -60.08, -3.49 101.61 11/13/2022 23:24:32 -60.09, -3.47 101.60 1.58 3
23 11/14/2022 00:13:01 63.46, 166.65 81.63 11/14/2022 00:12:54 63.46, 166.66 81.63 0.18 7
24 11/14/2022 01:02:14 -64.34, -24.97 97.52 11/14/2022 01:02:04 -64.34, -24.96 97.51 0.82 10
25 11/14/2022 01:50:53 66.94, 145.19 85.03 11/14/2022 01:50:39 66.93, 145.18 85.02 0.66 14
26 11/14/2022 02:40:10 -67.56, -46.50 94.36 11/14/2022 02:39:53 -67.56, -46.50 94.36 0.06 17
27 11/14/2022 03:28:58 69.62, 123.69 87.71 11/14/2022 03:28:37 69.61, 123.66 87.70 1.59 21
28 11/14/2022 04:18:18 -70.05, -68.08 91.85 11/14/2022 04:17:54 -70.04, -68.09 91.86 1.04 24
29 11/14/2022 05:07:14 71.64, 102.03 89.78 11/14/2022 05:06:46 71.62, 101.98 89.76 2.59 28
30 11/14/2022 05:56:36 -71.95, -89.82 89.90 11/14/2022 05:56:05 -71.93, -89.85 89.92 2.08 31
31 11/14/2022 06:46:16 71.16, 76.51 89.30 11/14/2022 06:45:40 71.18, 76.56 89.32 2.99 36
32 11/14/2022 07:35:00 -73.48,-111.60 88.28 11/14/2022 07:34:22 -73.46,-111.66 88.31 3.17 38
33 11/14/2022 08:24:38 72.82, 54.71 91.04 11/14/2022 08:23:55 72.84, 54.75 91.05 1.91 43
34 11/14/2022 09:13:58 -73.22,-136.86 88.54 11/14/2022 09:13:12 -73.24,-136.81 88.53 2.38 46
35 11/14/2022 10:03:06 74.13, 32.76 92.44 11/14/2022 10:02:16 74.14, 32.78 92.44 0.80 50
36 11/14/2022 10:52:28 -74.42,-158.94 87.25 11/14/2022 10:51:35 -74.42,-158.91 87.25 1.24 53
37 11/14/2022 11:41:38 75.21, 10.71 93.62 11/14/2022 11:40:41 75.20, 10.70 93.61 0.34 57
38 11/14/2022 12:31:01 -75.43, 178.96 86.13 11/14/2022 12:30:01 -75.43, 178.96 86.14 0.07 60
39 11/14/2022 13:20:13 76.10, -11.41 94.64 11/14/2022 13:19:09 76.09, -11.45 94.62 1.51 64
40 11/14/2022 14:09:37 -76.26, 156.74 85.17 11/14/2022 14:08:30 -76.25, 156.71 85.19 1.11 67



Historial Predications of SNOs between LANDSAT-8 and TERRA
